Time,TemperatureF,DewpointF,PressureIn,WindDirection,WindDirectionDegrees,WindSpeedMPH,WindSpeedGustMPH,Humidity,HourlyPrecipIn,Conditions,Clouds,dailyrainin,SoftwareType,DateUTC
2013-07-15 00:02:00,70.0,68.0,29.99,ESE,116,1.0,3.0,94,0.00,,,0.93,,2013-07-15 05:02:00,
2013-07-15 00:11:00,70.0,68.0,29.99,East,96,1.0,3.0,94,0.00,,,0.93,,2013-07-15 05:11:00,
2013-07-15 00:21:00,70.0,68.0,30.00,East,92,0.0,3.0,93,0.00,,,0.93,,2013-07-15 05:21:00,
2013-07-15 00:32:00,70.0,68.0,30.00,East,92,0.0,3.0,93,0.00,,,0.93,,2013-07-15 05:32:00,
2013-07-15 00:43:00,70.0,68.0,30.00,East,90,0.0,2.0,94,0.00,,,0.93,,2013-07-15 05:43:00,
2013-07-15 00:53:00,70.0,68.0,30.00,East,90,0.0,1.0,94,0.00,,,0.93,,2013-07-15 05:53:00,
2013-07-15 01:02:00,70.0,68.0,30.00,East,90,0.0,1.0,94,0.00,,,0.93,,2013-07-15 06:02:00,
2013-07-15 01:11:00,70.0,68.0,30.00,East,90,1.0,2.0,94,0.00,,,0.93,,2013-07-15 06:11:00,
2013-07-15 01:22:00,70.0,68.0,29.99,East,90,0.0,2.0,94,0.00,,,0.93,,2013-07-15 06:22:00,
2013-07-15 01:32:00,70.0,68.0,29.99,East,90,0.0,2.0,94,0.00,,,0.93,,2013-07-15 06:32:00,
2013-07-15 01:42:00,70.0,68.0,29.99,East,90,0.0,0.0,94,0.00,,,0.93,,2013-07-15 06:42:00,
2013-07-15 01:53:00,70.0,68.0,29.99,East,90,0.0,0.0,94,0.00,,,0.93,,2013-07-15 06:53:00,
2013-07-15 02:01:00,70.0,68.0,29.99,East,90,0.0,0.0,94,0.00,,,0.93,,2013-07-15 07:01:00,
2013-07-15 02:11:00,70.0,68.0,29.99,East,90,0.0,0.0,94,0.00,,,0.93,,2013-07-15 07:11:00,
2013-07-15 02:21:00,70.0,68.0,29.99,East,90,0.0,2.0,94,0.00,,,0.93,,2013-07-15 07:21:00,
2013-07-15 02:33:00,70.0,68.0,29.99,East,90,0.0,2.0,94,0.00,,,0.93,,2013-07-15 07:33:00,
2013-07-15 02:44:00,69.0,67.0,29.99,East,90,0.0,2.0,94,0.00,,,0.93,,2013-07-15 07:44:00,
2013-07-15 02:53:00,69.0,68.0,29.99,East,90,0.0,0.0,95,0.00,,,0.93,,2013-07-15 07:53:00,
2013-07-15 03:01:00,69.0,68.0,29.99,East,90,0.0,0.0,95,0.00,,,0.93,,2013-07-15 08:01:00,
2013-07-15 03:11:00,69.0,68.0,29.99,East,90,0.0,1.0,95,0.00,,,0.93,,2013-07-15 08:11:00,
2013-07-15 03:22:00,69.0,68.0,29.99,East,90,0.0,2.0,95,0.00,,,0.93,,2013-07-15 08:22:00,
2013-07-15 03:32:00,69.0,68.0,29.99,East,90,0.0,2.0,95,0.00,,,0.93,,2013-07-15 08:32:00,
2013-07-15 03:43:00,69.0,68.0,29.99,ENE,67,0.0,3.0,95,0.00,,,0.93,,2013-07-15 08:43:00,
2013-07-15 03:53:00,69.0,68.0,29.99,ENE,67,1.0,3.0,95,0.00,,,0.93,,2013-07-15 08:53:00,
2013-07-15 04:02:00,69.0,68.0,29.99,ENE,67,1.0,3.0,95,0.00,,,0.93,,2013-07-15 09:02:00,
2013-07-15 04:11:00,69.0,68.0,29.99,ENE,67,2.0,3.0,95,0.00,,,0.93,,2013-07-15 09:11:00,
2013-07-15 04:22:00,69.0,68.0,29.99,ENE,73,1.0,4.0,95,0.00,,,0.93,,2013-07-15 09:22:00,
2013-07-15 04:32:00,69.0,68.0,29.99,ENE,73,1.0,4.0,95,0.00,,,0.93,,2013-07-15 09:32:00,
2013-07-15 04:43:00,69.0,68.0,30.00,ENE,60,0.0,2.0,95,0.00,,,0.93,,2013-07-15 09:43:00,
2013-07-15 04:52:00,69.0,68.0,30.00,ENE,60,0.0,0.0,95,0.00,,,0.93,,2013-07-15 09:52:00,
2013-07-15 05:02:00,69.0,68.0,30.00,ENE,60,0.0,0.0,95,0.00,,,0.93,,2013-07-15 10:02:00,
2013-07-15 05:11:00,68.0,67.0,30.01,ENE,60,0.0,0.0,95,0.00,,,0.93,,2013-07-15 10:11:00,
2013-07-15 05:22:00,68.0,67.0,30.02,ENE,60,0.0,1.0,95,0.00,,,0.93,,2013-07-15 10:22:00,
2013-07-15 05:32:00,68.0,67.0,30.02,ENE,60,0.0,1.0,95,0.00,,,0.93,,2013-07-15 10:32:00,
2013-07-15 05:43:00,68.0,67.0,30.02,ENE,60,0.0,1.0,95,0.00,,,0.93,,2013-07-15 10:43:00,
2013-07-15 05:53:00,68.0,67.0,30.03,ENE,60,0.0,0.0,96,0.00,,,0.93,,2013-07-15 10:53:00,
2013-07-15 06:02:00,68.0,67.0,30.03,ENE,60,0.0,0.0,96,0.00,,,0.93,,2013-07-15 11:02:00,
2013-07-15 06:11:00,68.0,67.0,30.03,ENE,60,0.0,0.0,96,0.00,,,0.93,,2013-07-15 11:11:00,
2013-07-15 06:22:00,68.0,67.0,30.04,ENE,60,0.0,0.0,96,0.00,,,0.93,,2013-07-15 11:22:00,
2013-07-15 06:32:00,68.0,67.0,30.04,ENE,60,0.0,0.0,96,0.00,,,0.93,,2013-07-15 11:32:00,
2013-07-15 06:42:00,68.0,67.0,30.04,NW,319,0.0,3.0,96,0.00,,,0.93,,2013-07-15 11:42:00,
2013-07-15 06:52:00,68.0,67.0,30.04,ESE,115,0.0,2.0,96,0.00,,,0.93,,2013-07-15 11:52:00,
2013-07-15 07:01:00,68.0,67.0,30.04,ESE,115,0.0,2.0,96,0.00,,,0.93,,2013-07-15 12:01:00,
2013-07-15 07:11:00,69.0,68.0,30.05,East,82,1.0,3.0,96,0.00,,,0.93,,2013-07-15 12:11:00,
2013-07-15 07:22:00,70.0,69.0,30.06,ENE,67,1.0,3.0,96,0.00,,,0.93,,2013-07-15 12:22:00,
2013-07-15 07:32:00,70.0,69.0,30.06,ENE,67,1.0,3.0,96,0.00,,,0.93,,2013-07-15 12:32:00,
2013-07-15 07:42:00,71.0,70.0,30.06,ENE,65,2.0,3.0,96,0.00,,,0.93,,2013-07-15 12:42:00,
2013-07-15 07:52:00,72.0,70.0,30.07,East,83,2.0,4.0,94,0.00,,,0.93,,2013-07-15 12:52:00,
2013-07-15 08:01:00,72.0,70.0,30.07,East,83,2.0,4.0,94,0.00,,,0.93,,2013-07-15 13:01:00,
2013-07-15 08:11:00,73.0,71.0,30.07,East,79,1.0,3.0,93,0.00,,,0.93,,2013-07-15 13:11:00,
2013-07-15 08:22:00,74.0,72.0,30.08,East,90,1.0,5.0,92,0.00,,,0.93,,2013-07-15 13:22:00,
2013-07-15 08:33:00,74.0,72.0,30.08,East,90,1.0,5.0,92,0.00,,,0.93,,2013-07-15 13:33:00,
2013-07-15 08:43:00,75.0,72.0,30.08,SE,128,2.0,5.0,91,0.00,,,0.93,,2013-07-15 13:43:00,
2013-07-15 08:53:00,76.0,73.0,30.09,SE,134,2.0,7.0,89,0.00,,,0.93,,2013-07-15 13:53:00,
2013-07-15 09:02:00,76.0,73.0,30.09,SE,134,2.0,7.0,89,0.00,,,0.93,,2013-07-15 14:02:00,
2013-07-15 09:11:00,77.0,73.0,30.09,SE,138,1.0,5.0,88,0.00,,,0.93,,2013-07-15 14:11:00,
2013-07-15 09:22:00,78.0,74.0,30.10,ENE,64,1.0,5.0,87,0.00,,,0.93,,2013-07-15 14:22:00,
2013-07-15 09:33:00,78.0,74.0,30.10,ENE,64,1.0,5.0,87,0.00,,,0.93,,2013-07-15 14:33:00,
2013-07-15 09:42:00,78.0,73.0,30.09,ENE,63,3.0,6.0,85,0.00,,,0.93,,2013-07-15 14:42:00,
2013-07-15 09:56:00,79.0,74.0,30.09,ENE,58,2.0,7.0,85,0.00,,,0.93,,2013-07-15 14:56:00,
2013-07-15 10:03:00,79.0,74.0,30.09,ENE,58,2.0,7.0,85,0.00,,,0.93,,2013-07-15 15:03:00,
2013-07-15 10:38:00,81.0,75.0,30.10,East,90,2.0,5.0,82,0.00,,,0.93,,2013-07-15 15:38:00,
2013-07-15 10:45:00,81.0,75.0,30.10,ENE,76,3.0,8.0,81,0.00,,,0.93,,2013-07-15 15:45:00,
2013-07-15 10:53:00,82.0,74.0,30.10,SE,144,3.0,6.0,76,0.00,,,0.93,,2013-07-15 15:53:00,
2013-07-15 11:07:00,82.0,74.0,30.10,SE,144,3.0,6.0,76,0.00,,,0.93,,2013-07-15 16:07:00,
2013-07-15 11:15:00,83.0,75.0,30.10,NE,53,2.0,5.0,77,0.00,,,0.93,,2013-07-15 16:15:00,
2013-07-15 11:24:00,83.0,73.0,30.10,SE,131,4.0,8.0,73,0.00,,,0.93,,2013-07-15 16:24:00,
2013-07-15 11:33:00,83.0,73.0,30.10,SE,131,4.0,8.0,73,0.00,,,0.93,,2013-07-15 16:33:00,
2013-07-15 11:52:00,84.0,74.0,30.09,ESE,117,3.0,8.0,73,0.00,,,0.93,,2013-07-15 16:52:00,
2013-07-15 12:05:00,84.0,74.0,30.09,ESE,117,3.0,8.0,73,0.00,,,0.93,,2013-07-15 17:05:00,
2013-07-15 12:13:00,85.0,74.0,30.09,East,95,3.0,7.0,69,0.00,,,0.93,,2013-07-15 17:13:00,
2013-07-15 12:22:00,86.0,75.0,30.09,East,96,3.0,8.0,69,0.00,,,0.93,,2013-07-15 17:22:00,
2013-07-15 12:23:00,86.0,75.0,30.09,ESE,111,2.0,10.0,71,0.00,,,0.93,,2013-07-15 17:23:00,
2013-07-15 12:36:00,86.0,75.0,30.09,ESE,111,2.0,10.0,71,0.00,,,0.93,,2013-07-15 17:36:00,
2013-07-15 12:55:00,86.0,75.0,30.09,East,96,3.0,8.0,69,0.00,,,0.93,,2013-07-15 17:55:00,
2013-07-15 13:05:00,86.0,75.0,30.09,East,96,3.0,8.0,69,0.00,,,0.93,,2013-07-15 18:05:00,
2013-07-15 13:16:00,86.0,75.0,30.09,East,96,3.0,8.0,69,0.00,,,0.93,,2013-07-15 18:16:00,
2013-07-15 15:07:00,88.0,74.0,30.06,NE,49,4.0,10.0,63,0.00,,,0.93,,2013-07-15 20:07:00,
2013-07-15 15:17:00,88.0,73.0,30.06,NE,56,3.0,10.0,62,0.00,,,0.93,,2013-07-15 20:17:00,
2013-07-15 15:28:00,88.0,73.0,30.05,SE,134,5.0,11.0,62,0.00,,,0.93,,2013-07-15 20:28:00,
2013-07-15 15:37:00,88.0,73.0,30.05,SE,134,5.0,11.0,62,0.00,,,0.93,,2013-07-15 20:37:00,
2013-07-15 15:43:00,89.0,75.0,30.05,East,79,4.0,10.0,63,0.00,,,0.93,,2013-07-15 20:43:00,
2013-07-15 15:54:00,89.0,73.0,30.05,East,90,6.0,10.0,60,0.00,,,0.93,,2013-07-15 20:54:00,
2013-07-15 16:02:00,89.0,73.0,30.05,East,90,6.0,10.0,60,0.00,,,0.93,,2013-07-15 21:02:00,
2013-07-15 16:12:00,89.0,72.0,30.05,ESE,109,2.0,9.0,58,0.00,,,0.93,,2013-07-15 21:12:00,
2013-07-15 16:23:00,89.0,74.0,30.04,SE,128,6.0,11.0,62,0.00,,,0.93,,2013-07-15 21:23:00,
2013-07-15 16:38:00,89.0,74.0,30.04,SE,128,6.0,11.0,62,0.00,,,0.93,,2013-07-15 21:38:00,
2013-07-15 16:47:00,89.0,74.0,30.04,SE,132,3.0,7.0,61,0.00,,,0.93,,2013-07-15 21:47:00,
2013-07-15 16:55:00,89.0,76.0,30.03,ESE,103,2.0,8.0,66,0.00,,,0.93,,2013-07-15 21:55:00,
2013-07-15 17:02:00,89.0,76.0,30.03,ESE,103,2.0,8.0,66,0.00,,,0.93,,2013-07-15 22:02:00,
2013-07-15 17:17:00,89.0,75.0,30.03,East,81,5.0,8.0,64,0.00,,,0.93,,2013-07-15 22:17:00,
2013-07-15 17:22:00,89.0,74.0,30.04,East,94,3.0,12.0,61,0.00,,,0.93,,2013-07-15 22:22:00,
2013-07-15 17:34:00,89.0,74.0,30.04,East,94,3.0,12.0,61,0.00,,,0.93,,2013-07-15 22:34:00,
2013-07-15 17:43:00,88.0,74.0,30.03,East,79,5.0,9.0,63,0.00,,,0.93,,2013-07-15 22:43:00,
2013-07-15 17:54:00,88.0,74.0,30.03,ENE,59,5.0,9.0,64,0.00,,,0.93,,2013-07-15 22:54:00,
2013-07-15 18:06:00,88.0,74.0,30.03,ENE,59,5.0,9.0,64,0.00,,,0.93,,2013-07-15 23:06:00,
2013-07-15 18:13:00,87.0,74.0,30.03,East,92,1.0,7.0,66,0.00,,,0.34,,2013-07-15 23:13:00,
2013-07-15 18:27:00,86.0,74.0,30.03,East,80,1.0,6.0,67,0.00,,,0.34,,2013-07-15 23:27:00,
2013-07-15 18:37:00,86.0,74.0,30.03,East,80,1.0,6.0,67,0.00,,,0.34,,2013-07-15 23:37:00,
2013-07-15 18:46:00,86.0,75.0,30.03,ENE,74,1.0,4.0,69,0.00,,,0.34,,2013-07-15 23:46:00,
2013-07-15 18:53:00,86.0,75.0,30.03,ENE,74,1.0,5.0,70,0.00,,,0.34,,2013-07-15 23:53:00,
2013-07-15 19:03:00,86.0,75.0,30.03,ENE,74,1.0,5.0,70,0.00,,,0.34,,2013-07-16 00:03:00,
2013-07-15 19:15:00,85.0,76.0,30.04,ENE,77,1.0,3.0,74,0.00,,,0.00,,2013-07-16 00:15:00,
2013-07-15 19:25:00,85.0,75.0,30.04,ENE,77,0.0,3.0,73,0.00,,,0.00,,2013-07-16 00:25:00,
2013-07-15 19:33:00,85.0,75.0,30.04,ENE,77,0.0,3.0,73,0.00,,,0.00,,2013-07-16 00:33:00,
2013-07-15 19:46:00,84.0,75.0,30.04,ENE,74,0.0,2.0,74,0.00,,,0.00,,2013-07-16 00:46:00,
2013-07-15 19:53:00,84.0,76.0,30.05,ENE,74,0.0,0.0,78,0.00,,,0.00,,2013-07-16 00:53:00,
2013-07-15 20:07:00,84.0,76.0,30.05,ENE,74,0.0,0.0,78,0.00,,,0.00,,2013-07-16 01:07:00,
2013-07-15 20:15:00,83.0,76.0,30.05,ENE,74,0.0,1.0,79,0.00,,,0.00,,2013-07-16 01:15:00,
2013-07-15 20:26:00,82.0,74.0,30.06,South,178,0.0,1.0,76,0.00,,,0.00,,2013-07-16 01:26:00,
2013-07-15 20:36:00,82.0,74.0,30.06,South,178,0.0,1.0,76,0.00,,,0.00,,2013-07-16 01:36:00,
2013-07-15 20:47:00,82.0,74.0,30.06,ESE,103,0.0,2.0,78,0.00,,,0.00,,2013-07-16 01:47:00,
2013-07-15 20:56:00,81.0,75.0,30.06,ESE,103,0.0,1.0,81,0.00,,,0.00,,2013-07-16 01:56:00,
2013-07-15 21:11:00,80.0,74.0,30.07,ESE,103,0.0,1.0,83,0.00,,,0.00,,2013-07-16 02:11:00,
2013-07-15 21:27:00,81.0,75.0,30.08,ESE,103,1.0,2.0,81,0.00,,,0.00,,2013-07-16 02:27:00,
2013-07-15 21:35:00,81.0,75.0,30.08,ESE,103,1.0,2.0,81,0.00,,,0.00,,2013-07-16 02:35:00,
2013-07-15 21:48:00,81.0,75.0,30.09,ESE,103,0.0,2.0,81,0.00,,,0.00,,2013-07-16 02:48:00,
2013-07-15 21:54:00,81.0,74.0,30.09,East,97,0.0,3.0,80,0.00,,,0.00,,2013-07-16 02:54:00,
2013-07-15 22:38:00,81.0,74.0,30.10,East,96,0.0,2.0,80,0.00,,,0.00,,2013-07-16 03:38:00,
2013-07-15 22:47:00,80.0,74.0,30.11,SE,142,0.0,4.0,81,0.00,,,0.00,,2013-07-16 03:47:00,
2013-07-15 22:56:00,80.0,74.0,30.11,SE,131,1.0,4.0,82,0.00,,,0.00,,2013-07-16 03:56:00,
2013-07-15 23:01:00,80.0,74.0,30.11,SE,131,1.0,4.0,82,0.00,,,0.00,,2013-07-16 04:01:00,
2013-07-15 23:12:00,80.0,74.0,30.11,SE,126,3.0,6.0,82,0.00,,,0.00,,2013-07-16 04:12:00,
2013-07-15 23:22:00,80.0,74.0,30.11,ESE,121,1.0,5.0,81,0.00,,,0.00,,2013-07-16 04:22:00,
2013-07-15 23:32:00,80.0,74.0,30.11,ESE,121,1.0,5.0,81,0.00,,,0.00,,2013-07-16 04:32:00,
2013-07-15 23:43:00,79.0,73.0,30.12,SSE,153,1.0,4.0,82,0.00,,,0.00,,2013-07-16 04:43:00,
2013-07-15 23:53:00,78.0,73.0,30.12,SSE,153,0.0,4.0,84,0.00,,,0.00,,2013-07-16 04:53:00,